| time (UTC) | temp F | wind direction | speed MPH | gust MPH | rain 1hr in | rain 24hr in | rain mn in | humidity % | barometer mb |
| 20260505022020 | 59 | 212 | 0.0 | 1.0 | 0.15 | 0.64 | 0.64 | 88 | 1001.4 |
| 20260505021021 | 59 | 0 | 0.0 | 2.0 | 0.16 | 0.64 | 0.64 | 87 | 1001.2 |
| 20260505020021 | 59 | 226 | 1.0 | 4.0 | 0.19 | 0.63 | 0.63 | 87 | 1000.6 |
| 20260505015021 | 60 | 136 | 1.0 | 2.0 | 0.17 | 0.60 | 0.60 | 84 | 1000.6 |
| 20260505014022 | 59 | 286 | 2.0 | 4.0 | 0.14 | 0.57 | 0.57 | 84 | 1000.9 |
| 20260505013019 | 58 | 281 | 3.0 | 7.0 | 0.13 | 0.54 | 0.54 | 88 | 1001.3 |
| 20260505012016 | 59 | 300 | 6.0 | 11.0 | 0.16 | 0.49 | 0.49 | 87 | 1001.7 |
| 20260505011016 | 60 | 292 | 6.0 | 10.0 | 0.31 | 0.48 | 0.48 | 89 | 1002.0 |
| 20260505010022 | 60 | 282 | 1.0 | 4.0 | 0.29 | 0.44 | 0.44 | 84 | 1001.1 |
| 20260505005022 | 60 | 261 | 1.0 | 2.0 | 0.29 | 0.43 | 0.43 | 85 | 1000.3 |
| 20260505004022 | 62 | 246 | 1.0 | 5.0 | 0.33 | 0.42 | 0.42 | 81 | 1000.5 |
| 20260505003022 | 62 | 243 | 0.0 | 2.0 | 0.32 | 0.42 | 0.42 | 82 | 999.9 |
| 20260505002016 | 64 | 299 | 2.0 | 11.0 | 0.24 | 0.33 | 0.33 | 77 | 999.8 |
| 20260505001020 | 65 | 306 | 6.0 | 9.0 | 0.07 | 0.16 | 0.16 | 81 | 1000.3 |
| 20260505000020 | 67 | 304 | 5.0 | 9.0 | 0.06 | 0.15 | 0.15 | 75 | 999.9 |
| 20260504235017 | 68 | 288 | 4.0 | 9.0 | 0.06 | 0.14 | 0.14 | 73 | 998.9 |
| 20260504234018 | 68 | 280 | 1.0 | 5.0 | 0.02 | 0.10 | 0.10 | 71 | 998.6 |
| 20260504233018 | 68 | 258 | 3.0 | 7.0 | 0.02 | 0.09 | 0.09 | 74 | 998.7 |
| 20260504232018 | 70 | 281 | 3.0 | 7.0 | 0.09 | 0.09 | 0.09 | 69 | 998.9 |
| 20260504231018 | 71 | 279 | 2.0 | 6.0 | 0.09 | 0.09 | 0.09 | 67 | 998.9 |
| 20260504230015 | 72 | 277 | 2.0 | 6.0 | 0.09 | 0.09 | 0.09 | 66 | 998.7 |
| 20260504225015 | 72 | 278 | 3.0 | 9.0 | 0.07 | 0.07 | 0.07 | 62 | 999.0 |
| 20260504224016 | 73 | 303 | 2.0 | 5.0 | 0.07 | 0.07 | 0.07 | 63 | 999.1 |
| 20260504223036 | 76 | 303 | 4.0 | 7.0 | 0.07 | 0.07 | 0.07 | 55 | 999.2 |
| 20260504222017 | 76 | 281 | 3.0 | 11.0 | 0.00 | 0.00 | 0.00 | 51 | 998.9 |
| 20260504221016 | 77 | 277 | 3.0 | 7.0 | 0.00 | 0.00 | 0.00 | 49 | 999.0 |
| 20260504220057 | 77 | 260 | 2.0 | 6.0 | 0.00 | 0.00 | 0.00 | 48 | 999.0 |
| 20260504215017 | 77 | 265 | 3.0 | 7.0 | 0.00 | 0.00 | 0.00 | 46 | 999.0 |
| 20260504214017 | 78 | 263 | 5.0 | 10.0 | 0.00 | 0.00 | 0.00 | 44 | 999.1 |
| 20260504213017 | 79 | 269 | 3.0 | 7.0 | 0.00 | 0.00 | 0.00 | 46 | 999.1 |
| 20260504212018 | 81 | 260 | 4.0 | 10.0 | 0.00 | 0.00 | 0.00 | 45 | 999.2 |
| 20260504211017 | 80 | 268 | 4.0 | 9.0 | 0.00 | 0.00 | 0.00 | 45 | 999.5 |
| 20260504210018 | 80 | 260 | 3.0 | 8.0 | 0.00 | 0.00 | 0.00 | 45 | 999.6 |
| 20260504205018 | 82 | 269 | 4.0 | 11.0 | 0.00 | 0.00 | 0.00 | 45 | 999.7 |
| 20260504204018 | 82 | 282 | 5.0 | 16.0 | 0.00 | 0.00 | 0.00 | 41 | 999.7 |
| 20260504203018 | 81 | 280 | 3.0 | 8.0 | 0.00 | 0.00 | 0.00 | 41 | 999.7 |
| 20260504202018 | 82 | 293 | 5.0 | 9.0 | 0.00 | 0.00 | 0.00 | 39 | 999.9 |
| 20260504201018 | 81 | 291 | 5.0 | 11.0 | 0.00 | 0.00 | 0.00 | 39 | 1000.0 |
| 20260504200035 | 81 | 291 | 6.0 | 11.0 | 0.00 | 0.00 | 0.00 | 39 | 1000.1 |
| 20260504195016 | 81 | 299 | 6.0 | 13.0 | 0.00 | 0.00 | 0.00 | 36 | 1000.2 |
| 20260504194036 | 81 | 295 | 6.0 | 10.0 | 0.00 | 0.00 | 0.00 | 37 | 1000.3 |
| 20260504193017 | 80 | 296 | 7.0 | 13.0 | 0.00 | 0.00 | 0.00 | 38 | 1000.4 |
| 20260504192016 | 81 | 293 | 6.0 | 10.0 | 0.00 | 0.00 | 0.00 | 38 | 1000.4 |
| 20260504191037 | 80 | 288 | 6.0 | 11.0 | 0.00 | 0.00 | 0.00 | 39 | 1000.5 |
| 20260504190017 | 80 | 297 | 8.0 | 14.0 | 0.00 | 0.00 | 0.00 | 39 | 1000.5 |
| 20260504185017 | 79 | 286 | 5.0 | 10.0 | 0.00 | 0.00 | 0.00 | 41 | 1000.6 |
| 20260504184017 | 79 | 289 | 5.0 | 12.0 | 0.00 | 0.00 | 0.00 | 42 | 1000.7 |
| 20260504183017 | 79 | 285 | 5.0 | 10.0 | 0.00 | 0.00 | 0.00 | 43 | 1000.8 |
| 20260504182037 | 80 | 271 | 3.0 | 9.0 | 0.00 | 0.00 | 0.00 | 43 | 1000.9 |
| 20260504181018 | 79 | 291 | 6.0 | 11.0 | 0.00 | 0.00 | 0.00 | 41 | 1001.0 |
| 20260504180017 | 79 | 287 | 3.0 | 8.0 | 0.00 | 0.00 | 0.00 | 44 | 1001.1 |
| 20260504175018 | 78 | 295 | 5.0 | 10.0 | 0.00 | 0.00 | 0.00 | 44 | 1001.1 |
| 20260504174018 | 78 | 263 | 3.0 | 7.0 | 0.00 | 0.00 | 0.00 | 46 | 1001.2 |
| 20260504173019 | 77 | 290 | 3.0 | 8.0 | 0.00 | 0.00 | 0.00 | 47 | 1001.4 |
| 20260504172019 | 76 | 288 | 4.0 | 12.0 | 0.00 | 0.00 | 0.00 | 48 | 1001.6 |
| 20260504171016 | 76 | 256 | 2.0 | 11.0 | 0.00 | 0.00 | 0.00 | 49 | 1001.7 |
| 20260504151016 | 70 | 282 | 3.0 | 8.0 | 0.00 | 0.27 | 0.00 | 55 | 1003.3 |
| 20260504141036 | 66 | 286 | 2.0 | 7.0 | 0.00 | 0.28 | 0.00 | 62 | 1004.0 |
| 20260504081023 | 46 | 94 | 1.0 | 3.0 | 0.00 | 0.28 | 0.00 | 91 | 1005.1 |
| 20260504045027 | 53 | 0.0 | 0.0 | 0.00 | 0.28 | 0.28 | 78 | 1006.5 | |
| 20260504044027 | 53 | 84 | 1.0 | 2.0 | 0.00 | 0.28 | 0.28 | 78 | 1006.5 |
| 20260504043028 | 53 | 120 | 0.0 | 1.0 | 0.00 | 0.28 | 0.28 | 77 | 1006.6 |
| 20260504042028 | 53 | 89 | 0.0 | 1.0 | 0.00 | 0.28 | 0.28 | 76 | 1006.7 |
| 20260504041048 | 54 | 159 | 0.0 | 1.0 | 0.00 | 0.28 | 0.28 | 75 | 1006.8 |
| 20260504040037 | 54 | 87 | 0.0 | 1.0 | 0.00 | 0.28 | 0.28 | 74 | 1006.9 |
| 20260504035017 | 55 | 95 | 0.0 | 2.0 | 0.00 | 0.28 | 0.28 | 73 | 1006.9 |
| 20260504034018 | 55 | 337 | 0.0 | 2.0 | 0.00 | 0.28 | 0.28 | 73 | 1007.0 |
| 20260504033018 | 56 | 111 | 0.0 | 2.0 | 0.00 | 0.28 | 0.28 | 72 | 1007.1 |
| 20260504032018 | 57 | 0.0 | 0.0 | 0.00 | 0.28 | 0.28 | 70 | 1007.2 | |
| 20260504031015 | 58 | 84 | 0.0 | 2.0 | 0.00 | 0.28 | 0.28 | 69 | 1007.3 |
| 20260504030035 | 59 | 72 | 0.0 | 2.0 | 0.00 | 0.28 | 0.28 | 67 | 1007.3 |
| 20260504025016 | 59 | 321 | 0.0 | 2.0 | 0.00 | 0.28 | 0.28 | 65 | 1007.2 |
| 20260504024016 | 60 | 270 | 0.0 | 3.0 | 0.00 | 0.28 | 0.28 | 64 | 1007.2 |
| 20260504023016 | 60 | 283 | 0.0 | 3.0 | 0.00 | 0.28 | 0.28 | 63 | 1007.1 |